Time,TemperatureF,DewpointF,PressureIn,WindDirection,WindDirectionDegrees,WindSpeedMPH,WindSpeedGustMPH,Humidity,HourlyPrecipIn,Conditions,Clouds,dailyrainin,SoftwareType,DateUTC
2013-07-28 00:02:00,71.0,67.0,29.82,South,188,0.0,1.0,88,0.00,,,2.77,,2013-07-28 05:02:00,
2013-07-28 00:12:00,71.0,67.0,29.82,SSW,193,0.0,2.0,87,0.00,,,2.77,,2013-07-28 05:12:00,
2013-07-28 00:22:00,71.0,67.0,29.82,South,187,0.0,1.0,87,0.00,,,2.77,,2013-07-28 05:22:00,
2013-07-28 00:32:00,71.0,67.0,29.82,South,187,0.0,1.0,87,0.00,,,2.77,,2013-07-28 05:32:00,
2013-07-28 00:43:00,71.0,67.0,29.82,SSW,193,0.0,1.0,88,0.00,,,2.77,,2013-07-28 05:43:00,
2013-07-28 00:52:00,71.0,67.0,29.83,SSW,194,0.0,0.0,88,0.00,,,2.77,,2013-07-28 05:52:00,
2013-07-28 01:02:00,71.0,67.0,29.83,SSW,194,0.0,0.0,88,0.00,,,2.77,,2013-07-28 06:02:00,
2013-07-28 01:12:00,71.0,68.0,29.82,SSW,194,0.0,0.0,89,0.00,,,2.77,,2013-07-28 06:12:00,
2013-07-28 01:22:00,71.0,68.0,29.83,WSW,250,0.0,0.0,89,0.00,,,2.04,,2013-07-28 06:22:00,
2013-07-28 01:32:00,71.0,68.0,29.83,WSW,250,0.0,0.0,89,0.00,,,2.04,,2013-07-28 06:32:00,
2013-07-28 01:43:00,71.0,67.0,29.82,WSW,248,0.0,0.0,88,0.00,,,2.04,,2013-07-28 06:43:00,
2013-07-28 01:52:00,71.0,67.0,29.83,SSW,198,0.0,0.0,88,0.00,,,2.04,,2013-07-28 06:52:00,
2013-07-28 02:02:00,71.0,67.0,29.83,SSW,198,0.0,0.0,88,0.00,,,2.04,,2013-07-28 07:02:00,
2013-07-28 02:12:00,72.0,68.0,29.83,SSW,198,0.0,1.0,87,0.00,,,2.04,,2013-07-28 07:12:00,
2013-07-28 02:22:00,71.0,67.0,29.83,SSW,198,0.0,0.0,87,0.00,,,0.00,,2013-07-28 07:22:00,
2013-07-28 02:32:00,71.0,67.0,29.83,SSW,198,0.0,0.0,87,0.00,,,0.00,,2013-07-28 07:32:00,
2013-07-28 02:43:00,71.0,67.0,29.82,SSW,198,0.0,0.0,87,0.00,,,0.00,,2013-07-28 07:43:00,
2013-07-28 02:53:00,71.0,67.0,29.82,SSW,198,0.0,0.0,87,0.00,,,0.00,,2013-07-28 07:53:00,
2013-07-28 03:02:00,71.0,67.0,29.82,SSW,198,0.0,0.0,87,0.00,,,0.00,,2013-07-28 08:02:00,
2013-07-28 03:12:00,71.0,68.0,29.82,SSW,198,0.0,0.0,89,0.00,,,0.00,,2013-07-28 08:12:00,
2013-07-28 03:22:00,70.0,67.0,29.82,SSW,198,0.0,0.0,90,0.00,,,0.00,,2013-07-28 08:22:00,
2013-07-28 03:33:00,70.0,67.0,29.82,SSW,198,0.0,0.0,90,0.00,,,0.00,,2013-07-28 08:33:00,
2013-07-28 03:42:00,70.0,68.0,29.81,SSW,198,0.0,0.0,92,0.00,,,0.00,,2013-07-28 08:42:00,
2013-07-28 03:53:00,69.0,67.0,29.81,SSW,198,0.0,0.0,93,0.00,,,0.00,,2013-07-28 08:53:00,
2013-07-28 04:02:00,69.0,67.0,29.81,SSW,198,0.0,0.0,93,0.00,,,0.00,,2013-07-28 09:02:00,
2013-07-28 04:12:00,69.0,67.0,29.81,SSW,198,0.0,0.0,93,0.00,,,0.00,,2013-07-28 09:12:00,
2013-07-28 04:22:00,69.0,67.0,29.81,SSW,198,0.0,0.0,94,0.00,,,0.00,,2013-07-28 09:22:00,
2013-07-28 04:32:00,69.0,67.0,29.81,SSW,198,0.0,0.0,94,0.00,,,0.00,,2013-07-28 09:32:00,
2013-07-28 04:43:00,69.0,67.0,29.82,SSW,198,0.0,0.0,94,0.00,,,0.00,,2013-07-28 09:43:00,
2013-07-28 04:53:00,69.0,68.0,29.81,SSW,198,0.0,0.0,95,0.00,,,0.00,,2013-07-28 09:53:00,
2013-07-28 05:02:00,69.0,68.0,29.81,SSW,198,0.0,0.0,95,0.00,,,0.00,,2013-07-28 10:02:00,
2013-07-28 05:12:00,69.0,68.0,29.81,SSW,198,0.0,0.0,95,0.00,,,0.00,,2013-07-28 10:12:00,
2013-07-28 05:22:00,69.0,68.0,29.80,SSW,198,0.0,0.0,95,0.00,,,0.00,,2013-07-28 10:22:00,
2013-07-28 05:32:00,69.0,68.0,29.80,SSW,198,0.0,0.0,95,0.00,,,0.00,,2013-07-28 10:32:00,
2013-07-28 05:42:00,69.0,68.0,29.80,SSW,198,0.0,0.0,95,0.00,,,0.00,,2013-07-28 10:42:00,
2013-07-28 05:52:00,69.0,68.0,29.80,SSW,198,0.0,0.0,95,0.00,,,0.00,,2013-07-28 10:52:00,
2013-07-28 06:12:00,68.0,67.0,29.80,SSW,198,0.0,0.0,96,0.00,,,0.00,,2013-07-28 11:12:00,
2013-07-28 06:22:00,68.0,67.0,29.81,SSW,198,0.0,0.0,96,0.00,,,0.00,,2013-07-28 11:22:00,
2013-07-28 06:33:00,68.0,67.0,29.81,SSW,198,0.0,0.0,96,0.00,,,0.00,,2013-07-28 11:33:00,
2013-07-28 06:43:00,69.0,68.0,29.81,SSW,198,0.0,0.0,96,0.00,,,0.00,,2013-07-28 11:43:00,
2013-07-28 06:53:00,69.0,68.0,29.81,SSW,198,0.0,0.0,96,0.00,,,0.00,,2013-07-28 11:53:00,
2013-07-28 07:02:00,69.0,68.0,29.81,SSW,198,0.0,0.0,96,0.00,,,0.00,,2013-07-28 12:02:00,
2013-07-28 07:12:00,69.0,68.0,29.82,SSW,198,0.0,0.0,96,0.00,,,0.00,,2013-07-28 12:12:00,
2013-07-28 07:22:00,69.0,68.0,29.82,SSW,198,0.0,0.0,97,0.00,,,0.00,,2013-07-28 12:22:00,
2013-07-28 07:33:00,69.0,68.0,29.82,SSW,198,0.0,0.0,97,0.00,,,0.00,,2013-07-28 12:33:00,
2013-07-28 07:43:00,70.0,69.0,29.83,SSW,198,0.0,0.0,97,0.00,,,0.00,,2013-07-28 12:43:00,
2013-07-28 07:53:00,70.0,69.0,29.83,SSW,198,0.0,1.0,96,0.00,,,0.00,,2013-07-28 12:53:00,
2013-07-28 08:02:00,70.0,69.0,29.83,SSW,198,0.0,1.0,96,0.00,,,0.00,,2013-07-28 13:02:00,
2013-07-28 08:12:00,71.0,70.0,29.83,SE,146,1.0,2.0,96,0.00,,,0.00,,2013-07-28 13:12:00,
2013-07-28 08:22:00,72.0,70.0,29.83,SSE,153,1.0,2.0,95,0.00,,,0.00,,2013-07-28 13:22:00,
2013-07-28 08:32:00,72.0,70.0,29.83,SSE,153,1.0,2.0,95,0.00,,,0.00,,2013-07-28 13:32:00,
2013-07-28 08:43:00,72.0,70.0,29.83,SE,139,0.0,2.0,94,0.00,,,0.00,,2013-07-28 13:43:00,
2013-07-28 08:52:00,73.0,71.0,29.83,SE,141,2.0,4.0,93,0.00,,,0.00,,2013-07-28 13:52:00,
2013-07-28 09:02:00,73.0,71.0,29.83,SE,141,2.0,4.0,93,0.00,,,0.00,,2013-07-28 14:02:00,
2013-07-28 09:12:00,73.0,71.0,29.83,SE,141,2.0,4.0,93,0.00,,,0.00,,2013-07-28 14:12:00,
2013-07-28 09:22:00,73.0,71.0,29.84,SSE,153,1.0,5.0,92,0.00,,,0.00,,2013-07-28 14:22:00,
2013-07-28 09:33:00,73.0,71.0,29.84,SSE,153,1.0,5.0,92,0.00,,,0.00,,2013-07-28 14:33:00,
2013-07-28 09:43:00,74.0,72.0,29.84,SSW,198,1.0,3.0,92,0.00,,,0.00,,2013-07-28 14:43:00,
2013-07-28 09:53:00,74.0,71.0,29.84,SE,135,1.0,5.0,91,0.00,,,0.00,,2013-07-28 14:53:00,
2013-07-28 10:02:00,74.0,71.0,29.84,SE,135,1.0,5.0,91,0.00,,,0.00,,2013-07-28 15:02:00,
2013-07-28 10:12:00,75.0,72.0,29.84,SW,232,1.0,3.0,91,0.00,,,0.00,,2013-07-28 15:12:00,
2013-07-28 10:22:00,77.0,73.0,29.84,SSW,193,0.0,4.0,88,0.00,,,0.00,,2013-07-28 15:22:00,
2013-07-28 10:32:00,77.0,73.0,29.84,SSW,193,0.0,4.0,88,0.00,,,0.00,,2013-07-28 15:32:00,
2013-07-28 10:43:00,78.0,74.0,29.84,South,183,2.0,5.0,87,0.00,,,0.00,,2013-07-28 15:43:00,
2013-07-28 10:53:00,78.0,73.0,29.84,SSW,212,1.0,5.0,86,0.00,,,0.00,,2013-07-28 15:53:00,
2013-07-28 11:02:00,78.0,73.0,29.84,SSW,212,1.0,5.0,86,0.00,,,0.00,,2013-07-28 16:02:00,
2013-07-28 11:12:00,80.0,74.0,29.84,SSE,153,1.0,5.0,83,0.00,,,0.00,,2013-07-28 16:12:00,
2013-07-28 11:22:00,82.0,76.0,29.84,West,270,0.0,4.0,81,0.00,,,0.00,,2013-07-28 16:22:00,
2013-07-28 11:33:00,82.0,76.0,29.84,West,270,0.0,4.0,81,0.00,,,0.00,,2013-07-28 16:33:00,
2013-07-28 11:43:00,84.0,76.0,29.84,WSW,247,0.0,5.0,77,0.00,,,0.00,,2013-07-28 16:43:00,
2013-07-28 11:52:00,85.0,76.0,29.83,WSW,249,1.0,7.0,74,0.00,,,0.00,,2013-07-28 16:52:00,
2013-07-28 12:02:00,85.0,76.0,29.83,WSW,249,1.0,7.0,74,0.00,,,0.00,,2013-07-28 17:02:00,
2013-07-28 12:12:00,85.0,74.0,29.84,WSW,243,2.0,4.0,70,0.00,,,0.00,,2013-07-28 17:12:00,
2013-07-28 12:22:00,86.0,75.0,29.83,WSW,252,1.0,4.0,69,0.00,,,0.00,,2013-07-28 17:22:00,
2013-07-28 12:32:00,86.0,75.0,29.83,WSW,252,1.0,4.0,69,0.00,,,0.00,,2013-07-28 17:32:00,
2013-07-28 12:43:00,86.0,74.0,29.83,WSW,257,1.0,6.0,68,0.00,,,0.00,,2013-07-28 17:43:00,
2013-07-28 13:03:00,87.0,76.0,29.83,SW,221,0.0,6.0,70,0.00,,,0.00,,2013-07-28 18:03:00,
2013-07-28 13:12:00,88.0,74.0,29.82,WSW,238,2.0,5.0,64,0.00,,,0.00,,2013-07-28 18:12:00,
2013-07-28 13:22:00,89.0,74.0,29.82,WSW,257,0.0,4.0,62,0.00,,,0.00,,2013-07-28 18:22:00,
2013-07-28 13:33:00,89.0,74.0,29.82,WSW,257,0.0,4.0,62,0.00,,,0.00,,2013-07-28 18:33:00,
2013-07-28 13:43:00,89.0,75.0,29.82,West,270,1.0,7.0,64,0.00,,,0.00,,2013-07-28 18:43:00,
2013-07-28 13:52:00,90.0,74.0,29.81,SSW,193,3.0,8.0,59,0.00,,,0.00,,2013-07-28 18:52:00,
2013-07-28 14:02:00,90.0,74.0,29.81,SSW,193,3.0,8.0,59,0.00,,,0.00,,2013-07-28 19:02:00,
2013-07-28 14:12:00,90.0,75.0,29.80,SSE,149,2.0,7.0,61,0.00,,,0.00,,2013-07-28 19:12:00,
2013-07-28 14:22:00,90.0,74.0,29.80,West,263,2.0,7.0,59,0.00,,,0.00,,2013-07-28 19:22:00,
2013-07-28 14:33:00,90.0,74.0,29.80,West,263,2.0,7.0,59,0.00,,,0.00,,2013-07-28 19:33:00,
2013-07-28 14:43:00,91.0,74.0,29.79,SSE,156,3.0,9.0,57,0.00,,,0.00,,2013-07-28 19:43:00,
2013-07-28 14:52:00,91.0,74.0,29.79,WSW,246,1.0,7.0,57,0.00,,,0.00,,2013-07-28 19:52:00,
2013-07-28 15:02:00,91.0,74.0,29.79,WSW,246,1.0,7.0,57,0.00,,,0.00,,2013-07-28 20:02:00,
2013-07-28 15:12:00,90.0,74.0,29.78,SW,233,3.0,8.0,60,0.00,,,0.00,,2013-07-28 20:12:00,
2013-07-28 15:22:00,90.0,74.0,29.78,SW,235,2.0,7.0,59,0.00,,,0.00,,2013-07-28 20:22:00,
2013-07-28 15:33:00,90.0,74.0,29.78,SW,235,2.0,7.0,59,0.00,,,0.00,,2013-07-28 20:33:00,
2013-07-28 15:43:00,91.0,74.0,29.77,South,190,2.0,6.0,58,0.00,,,0.00,,2013-07-28 20:43:00,
2013-07-28 15:52:00,91.0,74.0,29.77,SSW,203,1.0,6.0,57,0.00,,,0.00,,2013-07-28 20:52:00,
2013-07-28 16:02:00,91.0,74.0,29.77,SSW,203,1.0,6.0,57,0.00,,,0.00,,2013-07-28 21:02:00,
2013-07-28 16:12:00,91.0,73.0,29.76,SSW,207,1.0,10.0,56,0.00,,,0.00,,2013-07-28 21:12:00,
2013-07-28 16:22:00,92.0,74.0,29.75,South,187,3.0,9.0,56,0.00,,,0.00,,2013-07-28 21:22:00,
2013-07-28 16:33:00,92.0,74.0,29.75,South,187,3.0,9.0,56,0.00,,,0.00,,2013-07-28 21:33:00,
2013-07-28 16:44:00,92.0,73.0,29.75,South,186,2.0,7.0,54,0.00,,,0.00,,2013-07-28 21:44:00,
2013-07-28 16:52:00,92.0,72.0,29.74,SSW,197,1.0,8.0,53,0.00,,,0.00,,2013-07-28 21:52:00,
2013-07-28 17:02:00,92.0,72.0,29.74,SSW,197,1.0,8.0,53,0.00,,,0.00,,2013-07-28 22:02:00,
2013-07-28 17:12:00,92.0,72.0,29.74,West,277,3.0,8.0,53,0.00,,,0.00,,2013-07-28 22:12:00,
2013-07-28 17:22:00,92.0,72.0,29.74,South,174,3.0,10.0,53,0.00,,,0.00,,2013-07-28 22:22:00,
2013-07-28 17:32:00,92.0,72.0,29.74,South,174,3.0,10.0,53,0.00,,,0.00,,2013-07-28 22:32:00,
2013-07-28 17:43:00,92.0,72.0,29.73,WSW,238,2.0,8.0,52,0.00,,,0.00,,2013-07-28 22:43:00,
2013-07-28 17:52:00,92.0,71.0,29.73,WSW,240,3.0,9.0,51,0.00,,,0.00,,2013-07-28 22:52:00,
2013-07-28 18:03:00,92.0,71.0,29.73,WSW,240,3.0,9.0,51,0.00,,,0.00,,2013-07-28 23:03:00,
2013-07-28 18:12:00,92.0,72.0,29.73,WSW,256,2.0,7.0,53,0.00,,,0.00,,2013-07-28 23:12:00,
2013-07-28 18:22:00,91.0,71.0,29.73,WSW,257,3.0,9.0,53,0.00,,,0.00,,2013-07-28 23:22:00,
2013-07-28 18:32:00,91.0,71.0,29.73,WSW,257,3.0,9.0,53,0.00,,,0.00,,2013-07-28 23:32:00,
2013-07-28 18:43:00,91.0,71.0,29.73,West,264,3.0,8.0,52,0.00,,,0.00,,2013-07-28 23:43:00,
2013-07-28 18:53:00,91.0,71.0,29.73,West,260,3.0,11.0,52,0.00,,,0.00,,2013-07-28 23:53:00,
2013-07-28 19:02:00,91.0,71.0,29.73,West,260,3.0,11.0,52,0.00,,,0.00,,2013-07-29 00:02:00,
2013-07-28 19:22:00,90.0,71.0,29.72,SW,232,3.0,8.0,54,0.00,,,0.00,,2013-07-29 00:22:00,
2013-07-28 19:32:00,90.0,71.0,29.72,SW,232,3.0,8.0,54,0.00,,,0.00,,2013-07-29 00:32:00,
2013-07-28 19:43:00,89.0,71.0,29.73,SSW,212,2.0,7.0,55,0.00,,,0.00,,2013-07-29 00:43:00,
2013-07-28 19:52:00,88.0,70.0,29.74,SSW,201,1.0,5.0,56,0.00,,,0.00,,2013-07-29 00:52:00,
2013-07-28 20:02:00,88.0,70.0,29.74,SSW,201,1.0,5.0,56,0.00,,,0.00,,2013-07-29 01:02:00,
2013-07-28 20:12:00,86.0,70.0,29.74,South,190,1.0,5.0,59,0.00,,,0.00,,2013-07-29 01:12:00,
2013-07-28 20:25:00,86.0,70.0,29.74,South,190,1.0,5.0,59,0.00,,,0.00,,2013-07-29 01:25:00,
2013-07-28 20:34:00,86.0,71.0,29.75,WSW,237,1.0,7.0,61,0.00,,,0.00,,2013-07-29 01:34:00,
2013-07-28 20:44:00,85.0,71.0,29.75,WSW,255,1.0,3.0,63,0.00,,,0.00,,2013-07-29 01:44:00,
2013-07-28 20:55:00,84.0,71.0,29.75,SW,232,1.0,3.0,65,0.00,,,0.00,,2013-07-29 01:55:00,
2013-07-28 21:04:00,84.0,71.0,29.75,SW,232,1.0,3.0,65,0.00,,,0.00,,2013-07-29 02:04:00,
2013-07-28 21:13:00,84.0,71.0,29.75,SW,232,1.0,3.0,65,0.00,,,0.00,,2013-07-29 02:13:00,
2013-07-28 21:24:00,83.0,71.0,29.76,SSW,207,2.0,6.0,68,0.00,,,0.00,,2013-07-29 02:24:00,
2013-07-28 21:36:00,83.0,71.0,29.76,SSW,207,2.0,6.0,68,0.00,,,0.00,,2013-07-29 02:36:00,
2013-07-28 21:49:00,83.0,71.0,29.76,SSW,207,2.0,6.0,68,0.00,,,0.00,,2013-07-29 02:49:00,
2013-07-28 21:58:00,83.0,71.0,29.77,SW,229,2.0,6.0,67,0.00,,,0.00,,2013-07-29 02:58:00,
2013-07-28 22:03:00,83.0,71.0,29.77,WSW,244,2.0,6.0,67,0.00,,,0.00,,2013-07-29 03:03:00,
2013-07-28 22:16:00,83.0,71.0,29.78,SW,225,2.0,6.0,68,0.00,,,0.00,,2013-07-29 03:16:00,
2013-07-28 22:24:00,82.0,71.0,29.78,South,186,1.0,9.0,69,0.00,,,0.00,,2013-07-29 03:24:00,
2013-07-28 22:36:00,82.0,71.0,29.78,South,186,1.0,9.0,69,0.00,,,0.00,,2013-07-29 03:36:00,
2013-07-28 22:46:00,82.0,71.0,29.79,WSW,256,2.0,8.0,69,0.00,,,0.00,,2013-07-29 03:46:00,
2013-07-28 23:02:00,81.0,70.0,29.79,SW,228,2.0,7.0,70,0.00,,,0.00,,2013-07-29 04:02:00,
2013-07-28 23:12:00,81.0,71.0,29.80,West,273,4.0,7.0,71,0.00,,,0.00,,2013-07-29 04:12:00,
2013-07-28 23:22:00,81.0,72.0,29.80,SW,214,2.0,8.0,73,0.00,,,0.00,,2013-07-29 04:22:00,
2013-07-28 23:32:00,81.0,72.0,29.80,SW,214,2.0,8.0,73,0.00,,,0.00,,2013-07-29 04:32:00,
2013-07-28 23:43:00,80.0,71.0,29.80,SW,232,3.0,10.0,74,0.00,,,0.00,,2013-07-29 04:43:00,
2013-07-28 23:53:00,80.0,72.0,29.80,SW,219,3.0,9.0,77,0.00,,,0.00,,2013-07-29 04:53:00,